Time,TemperatureF,DewpointF,PressureIn,WindDirection,WindDirectionDegrees,WindSpeedMPH,WindSpeedGustMPH,Humidity,HourlyPrecipIn,Conditions,Clouds,dailyrainin,SoftwareType,DateUTC
2013-03-21 00:03:00,36.6,27.0,30.01,North,359,0.0,2.0,69,0.00,,,0.00,weatherlink.com 1.10,2013-03-21 04:03:00,
2013-03-21 00:18:00,36.4,28.0,30.01,NE,56,0.0,1.0,71,0.00,,,0.00,weatherlink.com 1.10,2013-03-21 04:18:00,
2013-03-21 00:33:00,36.1,28.0,30.01,NW,325,0.0,1.0,71,0.00,,,0.00,weatherlink.com 1.10,2013-03-21 04:33:00,
2013-03-21 00:48:00,35.8,27.0,30.01,NNE,20,0.0,1.0,71,0.00,,,0.00,weatherlink.com 1.10,2013-03-21 04:48:00,
2013-03-21 01:03:00,35.6,27.0,30.01,NW,308,0.0,2.0,71,0.00,,,0.00,weatherlink.com 1.10,2013-03-21 05:03:00,
2013-03-21 01:18:00,35.1,25.0,30.01,WSW,251,0.0,6.0,67,0.00,,,0.00,weatherlink.com 1.10,2013-03-21 05:18:00,
2013-03-21 01:33:00,34.5,23.0,30.01,WNW,301,0.0,5.0,64,0.00,,,0.00,weatherlink.com 1.10,2013-03-21 05:33:00,
2013-03-21 01:48:00,34.1,24.0,30.02,NW,313,0.0,1.0,66,0.00,,,0.00,weatherlink.com 1.10,2013-03-21 05:48:00,
2013-03-21 02:03:00,33.6,22.0,30.02,West,281,0.0,7.0,62,0.00,,,0.00,weatherlink.com 1.10,2013-03-21 06:03:00,
2013-03-21 02:18:00,32.9,19.0,30.02,WNW,300,1.0,7.0,58,0.00,,,0.00,weatherlink.com 1.10,2013-03-21 06:18:00,
2013-03-21 02:33:00,32.2,18.0,30.02,NW,304,0.0,5.0,56,0.00,,,0.00,weatherlink.com 1.10,2013-03-21 06:33:00,
2013-03-21 02:48:00,31.5,17.0,30.02,WNW,301,0.0,2.0,55,0.00,,,0.00,weatherlink.com 1.10,2013-03-21 06:48:00,
2013-03-21 03:03:00,30.9,16.0,30.02,WNW,300,0.0,4.0,54,0.00,,,0.00,weatherlink.com 1.10,2013-03-21 07:03:00,
2013-03-21 03:18:00,30.7,16.0,30.02,NW,326,0.0,4.0,55,0.00,,,0.00,weatherlink.com 1.10,2013-03-21 07:18:00,
2013-03-21 03:35:00,30.1,16.0,30.02,NW,314,1.0,5.0,55,0.00,,,0.00,weatherlink.com 1.10,2013-03-21 07:35:00,
2013-03-21 03:48:00,29.7,16.0,30.02,North,354,0.0,5.0,57,0.00,,,0.00,weatherlink.com 1.10,2013-03-21 07:48:00,
2013-03-21 04:03:00,29.2,15.0,30.02,NW,326,1.0,7.0,56,0.00,,,0.00,weatherlink.com 1.10,2013-03-21 08:03:00,
2013-03-21 04:18:00,28.9,14.0,30.02,NNE,16,0.0,6.0,55,0.00,,,0.00,weatherlink.com 1.10,2013-03-21 08:18:00,
2013-03-21 04:33:00,28.5,13.0,30.02,WNW,299,2.0,7.0,52,0.00,,,0.00,weatherlink.com 1.10,2013-03-21 08:33:00,
2013-03-21 04:48:00,28.1,13.0,30.02,WNW,291,0.0,2.0,54,0.00,,,0.00,weatherlink.com 1.10,2013-03-21 08:48:00,
2013-03-21 05:03:00,27.7,12.0,30.02,North,6,0.0,2.0,53,0.00,,,0.00,weatherlink.com 1.10,2013-03-21 09:03:00,
2013-03-21 05:18:00,27.4,13.0,30.02,NNW,345,3.0,3.0,55,0.00,,,0.00,weatherlink.com 1.10,2013-03-21 09:18:00,
2013-03-21 05:33:00,27.2,12.0,30.01,NW,322,0.0,4.0,52,0.00,,,0.00,weatherlink.com 1.10,2013-03-21 09:33:00,
2013-03-21 05:49:00,27.1,11.0,30.02,NNW,335,1.0,6.0,50,0.00,,,0.00,weatherlink.com 1.10,2013-03-21 09:49:00,
2013-03-21 06:04:00,26.7,11.0,30.02,North,358,0.0,5.0,52,0.00,,,0.00,weatherlink.com 1.10,2013-03-21 10:04:00,
2013-03-21 06:19:00,26.4,9.0,30.02,NNE,25,0.0,4.0,49,0.00,,,0.00,weatherlink.com 1.10,2013-03-21 10:19:00,
2013-03-21 06:34:00,26.0,10.0,30.02,NNE,12,0.0,2.0,50,0.00,,,0.00,weatherlink.com 1.10,2013-03-21 10:34:00,
2013-03-21 06:49:00,25.7,11.0,30.02,NW,326,0.0,1.0,53,0.00,,,0.00,weatherlink.com 1.10,2013-03-21 10:49:00,
2013-03-21 07:04:00,25.4,9.0,30.02,NNW,330,0.0,4.0,51,0.00,,,0.00,weatherlink.com 1.10,2013-03-21 11:04:00,
2013-03-21 07:21:00,25.1,10.0,30.02,West,270,0.0,5.0,52,0.00,,,0.00,weatherlink.com 1.10,2013-03-21 11:21:00,
2013-03-21 07:34:00,24.7,10.0,30.02,NNW,338,1.0,4.0,54,0.00,,,0.00,weatherlink.com 1.10,2013-03-21 11:34:00,
2013-03-21 07:49:00,24.3,11.0,30.02,NNW,337,0.0,3.0,56,0.00,,,0.00,weatherlink.com 1.10,2013-03-21 11:49:00,
2013-03-21 08:04:00,23.8,11.0,30.03,NNE,20,0.0,0.0,58,0.00,,,0.00,weatherlink.com 1.10,2013-03-21 12:04:00,
2013-03-21 08:19:00,24.0,11.0,30.03,NNW,328,0.0,2.0,59,0.00,,,0.00,weatherlink.com 1.10,2013-03-21 12:19:00,
2013-03-21 08:34:00,24.4,11.0,30.04,North,356,0.0,1.0,58,0.00,,,0.00,weatherlink.com 1.10,2013-03-21 12:34:00,
2013-03-21 08:49:00,24.9,11.0,30.05,West,275,0.0,2.0,55,0.00,,,0.00,weatherlink.com 1.10,2013-03-21 12:49:00,
2013-03-21 09:04:00,25.8,11.0,30.06,West,280,1.0,4.0,53,0.00,,,0.00,weatherlink.com 1.10,2013-03-21 13:04:00,
2013-03-21 09:19:00,26.3,9.0,30.06,WNW,302,1.0,7.0,49,0.00,,,0.00,weatherlink.com 1.10,2013-03-21 13:19:00,
2013-03-21 09:34:00,27.4,9.0,30.06,WSW,243,0.0,4.0,47,0.00,,,0.00,weatherlink.com 1.10,2013-03-21 13:34:00,
2013-03-21 09:49:00,28.3,9.0,30.06,North,354,1.0,5.0,45,0.00,,,0.00,weatherlink.com 1.10,2013-03-21 13:49:00,
2013-03-21 10:04:00,29.6,9.0,30.07,WNW,297,0.0,3.0,43,0.00,,,0.00,weatherlink.com 1.10,2013-03-21 14:04:00,
2013-03-21 10:19:00,30.3,9.0,30.07,NNW,338,1.0,7.0,40,0.00,,,0.00,weatherlink.com 1.10,2013-03-21 14:19:00,
2013-03-21 10:34:00,31.2,8.0,30.07,NNW,339,3.0,10.0,38,0.00,,,0.00,weatherlink.com 1.10,2013-03-21 14:34:00,
2013-03-21 10:49:00,31.6,8.0,30.07,NE,54,1.0,8.0,37,0.00,,,0.00,weatherlink.com 1.10,2013-03-21 14:49:00,
2013-03-21 11:05:00,32.4,9.0,30.07,NNW,339,2.0,6.0,37,0.00,,,0.00,weatherlink.com 1.10,2013-03-21 15:05:00,
2013-03-21 11:19:00,33.4,8.0,30.07,NNW,339,3.0,5.0,34,0.00,,,0.00,weatherlink.com 1.10,2013-03-21 15:19:00,
2013-03-21 11:34:00,34.3,8.0,30.07,West,281,1.0,5.0,34,0.00,,,0.00,weatherlink.com 1.10,2013-03-21 15:34:00,
2013-03-21 11:49:00,35.7,7.0,30.07,NNW,328,3.0,7.0,30,0.00,,,0.00,weatherlink.com 1.10,2013-03-21 15:49:00,
2013-03-21 12:04:00,36.1,9.0,30.06,NNE,13,1.0,5.0,32,0.00,,,0.00,weatherlink.com 1.10,2013-03-21 16:04:00,
2013-03-21 12:20:00,37.1,10.0,30.06,NW,322,2.0,5.0,32,0.00,,,0.00,weatherlink.com 1.10,2013-03-21 16:20:00,
2013-03-21 12:34:00,37.9,10.0,30.05,NNW,344,0.0,8.0,32,0.00,,,0.00,weatherlink.com 1.10,2013-03-21 16:34:00,
2013-03-21 12:49:00,38.2,8.0,30.05,WNW,293,0.0,6.0,28,0.00,,,0.00,weatherlink.com 1.10,2013-03-21 16:49:00,
2013-03-21 13:04:00,38.9,9.0,30.04,WNW,293,1.0,5.0,29,0.00,,,0.00,weatherlink.com 1.10,2013-03-21 17:04:00,
2013-03-21 13:19:00,40.0,10.0,30.04,NW,310,0.0,5.0,29,0.00,,,0.00,weatherlink.com 1.10,2013-03-21 17:19:00,
2013-03-21 13:34:00,40.0,10.0,30.03,NNW,337,1.0,5.0,29,0.00,,,0.00,weatherlink.com 1.10,2013-03-21 17:34:00,
2013-03-21 13:49:00,41.5,12.0,30.02,SE,128,1.0,4.0,30,0.00,,,0.00,weatherlink.com 1.10,2013-03-21 17:49:00,
2013-03-21 14:05:00,42.1,12.0,30.02,WNW,290,0.0,7.0,29,0.00,,,0.00,weatherlink.com 1.10,2013-03-21 18:05:00,
2013-03-21 14:20:00,42.4,10.0,30.02,ENE,68,1.0,4.0,27,0.00,,,0.00,weatherlink.com 1.10,2013-03-21 18:20:00,
2013-03-21 14:35:00,43.0,10.0,30.01,WNW,296,1.0,7.0,26,0.00,,,0.00,weatherlink.com 1.10,2013-03-21 18:35:00,
2013-03-21 14:50:00,43.0,13.0,30.01,West,272,0.0,5.0,29,0.00,,,0.00,weatherlink.com 1.10,2013-03-21 18:50:00,
2013-03-21 15:05:00,44.0,11.0,30.01,NW,306,3.0,4.0,26,0.00,,,0.00,weatherlink.com 1.10,2013-03-21 19:05:00,
2013-03-21 15:20:00,44.2,11.0,30.00,ENE,63,1.0,6.0,26,0.00,,,0.00,weatherlink.com 1.10,2013-03-21 19:20:00,
2013-03-21 15:35:00,45.0,14.0,30.00,West,272,0.0,6.0,29,0.00,,,0.00,weatherlink.com 1.10,2013-03-21 19:35:00,
2013-03-21 15:50:00,44.0,12.0,30.00,WNW,283,3.0,9.0,27,0.00,,,0.00,weatherlink.com 1.10,2013-03-21 19:50:00,
2013-03-21 16:05:00,45.4,14.0,29.99,West,279,0.0,5.0,28,0.00,,,0.00,weatherlink.com 1.10,2013-03-21 20:05:00,
2013-03-21 16:20:00,46.1,13.0,29.99,NW,304,0.0,4.0,26,0.00,,,0.00,weatherlink.com 1.10,2013-03-21 20:20:00,
2013-03-21 16:35:00,46.6,13.0,29.99,ENE,60,0.0,4.0,26,0.00,,,0.00,weatherlink.com 1.10,2013-03-21 20:35:00,
2013-03-21 16:50:00,45.7,12.0,29.99,East,79,3.0,7.0,26,0.00,,,0.00,weatherlink.com 1.10,2013-03-21 20:50:00,
2013-03-21 17:05:00,45.5,12.0,29.98,NNW,331,1.0,6.0,26,0.00,,,0.00,weatherlink.com 1.10,2013-03-21 21:05:00,
2013-03-21 17:20:00,45.5,12.0,29.98,WNW,284,1.0,4.0,26,0.00,,,0.00,weatherlink.com 1.10,2013-03-21 21:20:00,
2013-03-21 17:35:00,44.9,13.0,29.98,NW,305,2.0,7.0,27,0.00,,,0.00,weatherlink.com 1.10,2013-03-21 21:35:00,
2013-03-21 17:50:00,44.7,12.0,29.97,West,269,3.0,5.0,26,0.00,,,0.00,weatherlink.com 1.10,2013-03-21 21:50:00,
2013-03-21 18:05:00,44.1,12.0,29.97,WNW,297,1.0,6.0,27,0.00,,,0.00,weatherlink.com 1.10,2013-03-21 22:05:00,
2013-03-21 18:20:00,43.6,11.0,29.97,ENE,58,0.0,4.0,27,0.00,,,0.00,weatherlink.com 1.10,2013-03-21 22:20:00,
2013-03-21 18:35:00,43.5,12.0,29.97,NW,321,0.0,4.0,28,0.00,,,0.00,weatherlink.com 1.10,2013-03-21 22:35:00,
2013-03-21 18:50:00,43.2,11.0,29.97,NW,314,2.0,3.0,27,0.00,,,0.00,weatherlink.com 1.10,2013-03-21 22:50:00,
2013-03-21 19:05:00,42.4,12.0,29.97,West,278,1.0,6.0,29,0.00,,,0.00,weatherlink.com 1.10,2013-03-21 23:05:00,
2013-03-21 19:20:00,41.9,12.0,29.97,NNW,337,0.0,4.0,29,0.00,,,0.00,weatherlink.com 1.10,2013-03-21 23:20:00,
2013-03-21 19:35:00,41.2,12.0,29.97,North,2,4.0,6.0,30,0.00,,,0.00,weatherlink.com 1.10,2013-03-21 23:35:00,
2013-03-21 19:50:00,40.4,13.0,29.97,WNW,284,0.0,1.0,33,0.00,,,0.00,weatherlink.com 1.10,2013-03-21 23:50:00,
2013-03-21 20:05:00,39.0,16.0,29.98,WNW,284,0.0,1.0,39,0.00,,,0.00,weatherlink.com 1.10,2013-03-22 00:05:00,
2013-03-21 20:20:00,37.5,15.0,29.99,WNW,284,0.0,0.0,40,0.00,,,0.00,weatherlink.com 1.10,2013-03-22 00:20:00,
2013-03-21 20:35:00,37.0,16.0,29.99,NNW,332,0.0,1.0,42,0.00,,,0.00,weatherlink.com 1.10,2013-03-22 00:35:00,
2013-03-21 20:50:00,36.0,17.0,29.98,NNW,332,0.0,1.0,46,0.00,,,0.00,weatherlink.com 1.10,2013-03-22 00:50:00,
2013-03-21 21:05:00,35.5,15.0,29.99,NNW,332,0.0,0.0,44,0.00,,,0.00,weatherlink.com 1.10,2013-03-22 01:05:00,
2013-03-21 21:20:00,34.9,18.0,30.00,NNW,332,0.0,1.0,51,0.00,,,0.00,weatherlink.com 1.10,2013-03-22 01:20:00,
2013-03-21 21:35:00,34.1,18.0,30.00,NNW,331,0.0,0.0,51,0.00,,,0.00,weatherlink.com 1.10,2013-03-22 01:35:00,
2013-03-21 21:50:00,33.4,18.0,30.00,NNW,344,0.0,1.0,54,0.00,,,0.00,weatherlink.com 1.10,2013-03-22 01:50:00,
2013-03-21 22:20:00,32.3,18.0,30.02,NNW,345,0.0,0.0,56,0.00,,,0.00,weatherlink.com 1.10,2013-03-22 02:20:00,
2013-03-21 22:35:00,32.3,17.0,30.02,NNW,344,0.0,1.0,53,0.00,,,0.00,weatherlink.com 1.10,2013-03-22 02:35:00,
2013-03-21 22:50:00,32.6,16.0,30.03,NNE,16,0.0,1.0,51,0.00,,,0.00,weatherlink.com 1.10,2013-03-22 02:50:00,
2013-03-21 23:05:00,33.2,18.0,30.03,NNW,330,0.0,1.0,53,0.00,,,0.00,weatherlink.com 1.10,2013-03-22 03:05:00,
2013-03-21 23:20:00,33.3,16.0,30.03,NNW,332,0.0,1.0,50,0.00,,,0.00,weatherlink.com 1.10,2013-03-22 03:20:00,
2013-03-21 23:35:00,32.9,17.0,30.03,North,11,0.0,1.0,53,0.00,,,0.00,weatherlink.com 1.10,2013-03-22 03:35:00,
2013-03-21 23:50:00,33.8,16.0,30.03,West,276,0.0,1.0,48,0.00,,,0.00,weatherlink.com 1.10,2013-03-22 03:50:00,